Weather in Zonalnoye

Russia / Sakhalin District     50°39′48″N   142°45′20″E
В апреле 2022 года жителям России запретили посещать сайт meteo.paraplan.net по решению Генеральной прокуратуры. Аудитория сайта уменьшилась в 10 раз. Владельцы сайта не видят смысла в поддержке погодного сервера в таких условиях. Сайт будет закрыт в октябре.
temp.,
°C
wind,
m/s
gust,
m/s
humid.,
%
clouds,
%
prec.,
mm/h
press.,
hPa
HPBL,
m
5 october, wed
wed523:000nnw389899 2.3 1006374
02:000nnw3109880 1.1 1007770
05:00−2nw1499100 1.8 1008166
08:00−2wnw2798100 0.9 1009734
11:00+1wnw597717 1.6 10101623
14:00+1wnw51071100 0.1 10102012
17:00+1wsw388090 0.5 10111116
20:00−1ssw1299100 1.4 1012134
6 october, thu
thu623:00−1sse2398100 3.0 1012187
02:00−5sse239864 0.2 101144
05:00−6se239714 0.2 101150
08:00−5se249792 0.0 101272
11:00+2w377295 0.3 10111275
14:00+2w477298 0.6 10111573
17:00+2w478087 1.1 10121085
20:00−2sse119595 0.1 101523
7 october, fri
fri723:00−3sse249593 0.1 101670
02:00−2sse259826 0.0 1016105
05:00−4se25977 0.0 101798
08:00−5se249698 0.0 101875
11:00+3wsw487211 0.0 10171489
14:00+5wsw476682 0.1 10161580
17:00+4wsw25705 0.1 10171113
20:00−3se119280 0.0 101914
8 october, sat
sat823:00−2se219273 0.0 102030
02:00−3se239489 0.0 102048
05:00−1se129371 0.0 102140
08:00−4ese11966 0.0 102320
11:00+4s117347 0.0 1023379
14:00+5nw126591 0.3 10221034
17:00+5nw127598 0.9 10231096
20:00−2ne119512 0.1 102510
9 october, sun
sun923:00−4ene119517 0.1 102610
02:00−3ese1195100 0.0 102614
05:00−2se1296100 0.0 102637
08:00−3se229834 0.0 102734
11:00+2s238786 0.0 1027410
14:00+5wsw126848 0.6 10261037
17:00+5w23695 0.7 1026674
20:00−1se11905 0.0 102711